Regional Weather Roundup
Issued by NWS Green Bay, WI

Home | Current Version | Previous Version | Graphics & Text | Print | Product List | Glossary Off
Versions: 1 2 3 4 5 6 7 8 9 10 11 12 13 14 15 16 17 18 19 20 21 22 23 24 25 26 27 28 29 30 31 32 33 34 35 36 37 38 39 40 41 42 43 44 45 46 47 48 49 50

000
ASUS43 KGRB 291500
RWRGRB

NORTH-CENTRAL AND NORTHEAST WISCONSIN REGIONAL WEATHER ROUNDUP
NATIONAL WEATHER SERVICE GREEN BAY WI
1000 AM CDT WED JUL 29 2015

WIZ005-009-010>012-018-019-291600-
NORTH CENTRAL WISCONSIN

CITY           SKY/WX    TMP DP  RH WIND       PRES   REMARKS
IRONWOOD       MOSUNNY   70  54  56 SW23G32   29.74F
MANITOWISH WTR NOT AVBL
ARBOR VITAE    NOT AVBL
EAGLE RIVER    NOT AVBL
LAND O LAKES   NOT AVBL
RHINELANDER    SUNNY     73  51  46 W18G33    29.86S
PHILLIPS       SUNNY     70  52  53 W14G22    29.85S
ANTIGO         NOT AVBL
TOMAHAWK       NOT AVBL
MERRILL        NOT AVBL
$$

WIZ013-073-291600-
NORTHEAST WISCONSIN

CITY           SKY/WX    TMP DP  RH WIND       PRES   REMARKS
IRON MOUNTAIN  SUNNY     77  49  37 W16G24    29.80F
MARINETTE      PTSUNNY   75  55  50 W7G18     29.83F
$$

WIZ017-030-035>037-045-291600-
CENTRAL WISCONSIN

CITY           SKY/WX    TMP DP  RH WIND       PRES   REMARKS
MEDFORD        NOT AVBL
WAUSAU         MOSUNNY   75  50  41 W20G31    29.89F
MOSINEE        SUNNY     73  52  46 W14       29.92F
MARSHFIELD     SUNNY     74  51  44 W17G25    29.93F
WISC RAPIDS    SUNNY     77  48  35 W18G26    29.95F
STEVENS POINT  NOT AVBL
WAUPACA        NOT AVBL
SHAWANO        NOT AVBL
CLINTONVILLE   MOSUNNY   77  46  33 W15G21    29.89F
$$

WIZ038-039-048-051-291600-
FOX VALLEY

CITY           SKY/WX    TMP DP  RH WIND       PRES   REMARKS
NWS GREEN BAY  MOSUNNY   78  56  46 W16G25    29.89F
APPLETON       MOSUNNY   75  50  41 W16G24    29.92F
OSHKOSH        PTSUNNY   78  53  41 W12G17    29.92S
FOND DU LAC    PTSUNNY   78  51  38 W20G30    29.94R
$$

WIZ022-050-052-291600-
EAST CENTRAL WISCONSIN

CITY           SKY/WX    TMP DP  RH WIND       PRES   REMARKS
STURGEON BAY   PTSUNNY   77  55  47 W18G24    29.88F
MANITOWOC      NOT AVBL
SHEBOYGAN      CLOUDY    78  60  53 W8        29.93R
$$

LMZ563-521-522-541>543-291600-
LAKESHORE

STATION/POSITION TIME  TEMP    WIND        PRES    VSBY  WAVE
                       AIR SEA DIR/SP/G                  HT/PER
                 (UTC) (F)     (DEG/KT/KT) (MB)    (MI)  (FT/S)
SHEBOYGAN LKSHOR 1400   77     260/  6/  7 1013.1R
KEWAUNEE LKSHORE 1400   76     280/  7/ 10 1011.2F
ALGOMA MARINA    1412          330/  8/ 12   N/A
NORTHPORT PIER   1400   76     290/  6/ 16 1010.5F
N MID LAKE BUOY  1350   74 69  250/ 14/ 16 1009.8S         2/ 4
SISTER BAY LKSHO 1414   80     270/ 17/ 18   N/A
CHAMBERS ISLAND  1400   75     210/  9/ 14 1010.8F
MENOMINEE LKSHOR 1400   76     250/ 15/ 24 1011.8F
$$


USA.gov is the U.S. government's official web portal to all federal, state and local government web resources and services.